STARLINK-33764, 63510

Orbit data source: Space-Track

STARLINK-33764, 63510 is a payload satellite owned by SpaceX/Seattle (US) in LEO that was launched on Mon, 07 Apr 2025 UTC via an FALCON 9 launch vehicle from the Air Force Western Test Range (AFWTR). Payload-class satellites include a variety of spacecraft equipped with specific instruments for various scientific and technological missions. These include communications satellites like Starlink; space stations such as the ISS; scientific satellites like the Hubble; Earth observation satellites from companies like Planet Labs, Umbra, and HawkEye 360; GPS; miniature CubeSats for education and research; and military/defense satellites.

Loading next visibility...
Identifier
63510, 2025-071T
Orbit
LEO
Country
Flag of USUS
Related business
Manufacturer
SpaceX/Seattle
Mission
Operational Commercial Communications
Bus & Motor
STARLINK V2MO, Unknown motor
Mass
575 kg wet, ~530 kg dry
Launch date (UTC)
2025-04-07 (5 months ago)
Launch vehicle
FALCON 9
Launch site
Air Force Western Test Range (AFWTR)
Object type
Payload
Rocket body
Debris
Shape & HBR
Box + 1 Pan, 14.5 m
Radar Cross Section
41.120 m², Large (>1 m²)

Expand to show TLE details & history
Last TLE update: 8 hours ago

TLE from 8 hours ago
0 STARLINK-33764
1 63510U 25071T   25261.25204217  .00042803  00000-0  14496-2 0  9992
2 63510  53.1567 221.2145 0002047  27.1846 332.9262 15.30186239 26342
Epoch: 2025-09-18T06:02Z
TLE epoch observation values (Epoch: 2025-09-18T06:02:56.443Z)
Latitude
0.00001°
Longitude
133.06302°
Altitude
474.906 km
Speed
7.63 km/s
True Right ascension
14h 44m 51s
True Declination
0° 00' 00"
Sunlit
Object was in daylight at epoch
Visualization orbit readout
Latitude
Unknown
Longitude
Unknown
Altitude
Unknown
Speed
Unknown
Apparent Right ascension
Unknown
Apparent Declination
Unknown
Sunlit
N/A
Visualization observer readout
Local Sidereal Time
07:20:16
Azimuth
Unknown
Elevation
Unknown
Doppler factor
Unknown
Orbital elements
Apogee altitude
476.916 km
Perigee altitude
474.11 km
Semi-major axis
6,853.65 km
Eccentricity
0.0002
Inclination
53.1567°
RAAN
221.2145°
Arg. of periapsis
27.1846°
True anomaly
332.91552°
Mean anomaly
332.9262°
Eccentric anomaly
332.92086°
Mean motion
3.82525 °/min
Orbital period
94.11 mins
BSTAR
0.0014496
Loading maneuver chart data...
Computing Atmospheric mass density...
Loading historical data...
Loading historical data...
Loading historical data...
Loading historical data...
Loading historical data...
Loading historical data...
Loading historical data...

Documentation

Showing up to 5 results
|